Location: Asheville, NC
(35.6000°N, 82.5500°W)
Time: 15:55:29
(UTC-04:00)

XW-2C - Pass Details

Date: 03 January 2018
Orbit: 510 x 531 km, 97.5° (Epoch: 23 June)

Event Time Altitude Azimuth Distance (km) Brightness Sun altitude
Rises 06:48:31 0° 6° (N) 2,668 ? -10.4°
Reaches altitude 10° 06:50:39 10° 2° (N) 1,771 ? -10.0°
Maximum altitude 06:54:23 56° 285° (WNW) 629 ? -9.3°
Drops below altitude 10° 06:58:05 10° 206° (SSW) 1,745 ? -8.6°
Sets 07:00:11 0° 202° (SSW) 2,624 ? -8.2°
